User: anonymous   Login
Location: Fort Wayne
(41.1310°N, 85.1290°W)
Time: 07:57:12
(UTC-04:00)
Language:

COSMOS 2406 - Orbit

View from above orbital plane
View from above orbital plane
View from above satellite
View from above satellite

Ground track
Ground track

The orbit data is extracted from the following two-line orbital elements,

1 28352U 04021A   16236.83221186 -.00000194  00000-0 -80785-4 0  9994
2 28352  71.0052  25.5258 0015283 198.3960 161.6610 14.11458624628888
Epoch (UTC): 23 August 2016 19:58:23
Eccentricity: 0.0015283
inclination: 71.0052°
perigee height: 843 km
apogee height: 865 km
right ascension of ascending node: 25.5258°
argument of perigee: 198.3960°
revolutions per day: 14.11458624
mean anomaly at epoch: 161.6610°
orbit number at epoch: 62888

The dashed part of the orbit path shows where the satellite is in the earth's shadow,  

DLR